Location: Ariel
(45.9570°N, 122.5700°W)
Time: 15:17:10
(UTC-07:00)

Transit 4A - Pass Details

Date: 26 July 2019
Orbit: 863 x 981 km, 66.8° (Epoch: 24 August)

Event Time Altitude Azimuth Distance (km) Brightness Sun altitude
Exits shadow 00:08:03 18° 101° (E) 2,181 9.6 -22.7°
Drops below altitude 10° 00:12:01 10° 63° (ENE) 2,739 10.5 -22.9°
Sets 00:15:24 0° 46° (NE) 3,691 11.4 -23.1°
